FW8113 Weather Reports


Display with metric or nautical units.
time (UTC)temp
F
wind
direction
speed
MPH
gust
MPH
rain 1hr
in
rain 24hr
in
rain mn
in
humidity
%
barometer
mb
20260505230453 65 112 0.0 0.0 0.00 0.02 0.02 86 1006.3
20260505225949 65 106 0.0 0.0 0.00 0.02 0.02 85 1005.9
20260505225446 65 106 0.0 0.0 0.00 0.02 0.02 85 1006.3
20260505224942 65 106 0.0 0.0 0.00 0.02 0.02 84 1006.3
20260505224439 65 106 0.0 0.0 0.00 0.02 0.02 82 1006.3
20260505223936 66 106 0.0 0.0 0.00 0.02 0.02 81 1006.3
20260505223433 66 112 0.0 0.0 0.00 0.02 0.02 79 1005.9
20260505222929 66 116 0.0 0.0 0.00 0.02 0.02 79 1005.9
20260505222426 66 113 0.0 2.0 0.00 0.02 0.02 80 1006.3
20260505221922 66 105 0.0 0.0 0.00 0.02 0.02 80 1006.3
20260505221419 66 74 7.0 10.0 0.00 0.02 0.02 79 1006.3
20260505220916 66 172 3.0 3.0 0.00 0.02 0.02 79 1006.3
20260505220413 66 121 3.0 5.0 0.00 0.02 0.02 79 1006.3
20260505215911 67 105 0.0 0.0 0.02 0.02 0.02 77 1006.3
20260505215409 68 52 1.0 3.0 0.02 0.02 0.02 75 1006.3
20260505214907 69 98 0.0 0.0 0.02 0.02 0.02 73 1006.3
20260505214404 71 191 3.0 3.0 0.01 0.01 0.01 65 1005.9
20260505213901 72 225 3.0 3.0 0.00 0.00 0.00 60 1006.3
20260505213359 73 78 2.0 3.0 0.00 0.00 0.00 57 1006.3
20260505212854 74 103 6.0 9.0 0.00 0.00 0.00 55 1005.3
20260505212352 76 119 0.0 2.0 0.00 0.00 0.00 53 1004.9
20260505211848 79 81 5.0 7.0 0.00 0.00 0.00 45 1004.9
20260505211346 80 119 0.0 0.0 0.00 0.00 0.00 32 1004.2
20260505210842 80 119 0.0 0.0 0.00 0.00 0.00 31 1004.2
20260505210339 81 104 0.0 0.0 0.00 0.00 0.00 29 1003.6
20260505205835 81 119 0.0 0.0 0.00 0.00 0.00 29 1003.6
20260505205334 81 108 0.0 0.0 0.00 0.00 0.00 29 1003.6
20260505204830 82 132 0.0 0.0 0.00 0.00 0.00 29 1003.2
20260505204328 82 106 3.0 5.0 0.00 0.00 0.00 29 1003.6
20260505203826 82 123 1.0 2.0 0.00 0.00 0.00 29 1003.2
20260505203322 82 103 0.0 0.0 0.00 0.00 0.00 30 1003.2
20260505202818 82 279 3.0 5.0 0.00 0.00 0.00 30 1003.2
20260505202314 82 153 2.0 3.0 0.00 0.00 0.00 29 1003.2
20260505201811 82 154 1.0 2.0 0.00 0.00 0.00 30 1003.2
20260505201309 83 74 0.0 2.0 0.00 0.00 0.00 30 1003.2
20260505200807 83 123 1.0 2.0 0.00 0.00 0.00 31 1003.2
20260505200304 83 171 3.0 5.0 0.00 0.00 0.00 32 1003.2
20260505195759 83 74 2.0 5.0 0.00 0.00 0.00 32 1003.6
20260505195257 84 133 1.0 2.0 0.00 0.00 0.00 33 1003.6
20260505194753 84 169 0.0 0.0 0.00 0.00 0.00 32 1003.2
20260505194250 84 214 4.0 5.0 0.00 0.00 0.00 34 1003.2
20260505193746 84 203 4.0 5.0 0.00 0.00 0.00 34 1003.6
20260505193244 85 208 6.0 14.0 0.00 0.00 0.00 32 1003.6
20260505192742 86 111 1.0 2.0 0.00 0.00 0.00 39 1003.6
20260505192239 85 112 1.0 2.0 0.00 0.00 0.00 39 1003.6
20260505191737 84 148 0.0 2.0 0.00 0.00 0.00 39 1003.6
20260505191235 83 42 1.0 3.0 0.00 0.00 0.00 40 1003.6
20260505190731 83 113 3.0 5.0 0.00 0.00 0.00 42 1003.6
20260505190231 84 165 3.0 3.0 0.00 0.00 0.00 42 1003.6
20260505185728 83 147 2.0 3.0 0.00 0.00 0.00 42 1003.6
20260505185225 83 143 1.0 2.0 0.00 0.00 0.00 41 1003.6
20260505184720 83 80 1.0 2.0 0.00 0.00 0.00 40 1003.9
20260505184218 83 88 0.0 0.0 0.00 0.00 0.00 42 1003.9
20260505183715 82 66 3.0 3.0 0.00 0.00 0.00 43 1003.6
20260505183213 82 267 1.0 3.0 0.00 0.00 0.00 43 1003.9
20260505182708 82 117 2.0 2.0 0.00 0.00 0.00 43 1003.9
20260505182206 82 266 2.0 3.0 0.00 0.00 0.00 44 1003.9
20260505181702 82 137 0.0 2.0 0.00 0.00 0.00 43 1003.9
20260505181200 82 213 6.0 9.0 0.00 0.00 0.00 41 1003.9
20260505180655 82 149 0.0 2.0 0.00 0.00 0.00 45 1004.2
20260505180153 83 109 1.0 2.0 0.00 0.00 0.00 43 1004.2
20260505175649 82 153 2.0 3.0 0.00 0.00 0.00 43 1003.9
20260505175145 81 151 3.0 5.0 0.00 0.00 0.00 43 1004.2
20260505174642 80 157 7.0 10.0 0.00 0.00 0.00 44 1004.6
20260505174138 80 56 5.0 9.0 0.00 0.00 0.00 45 1004.2
20260505173635 80 127 4.0 9.0 0.00 0.00 0.00 45 1004.6
20260505173132 80 105 1.0 2.0 0.00 0.00 0.00 46 1004.9
20260505172629 80 165 3.0 5.0 0.00 0.00 0.00 46 1004.6
20260505172126 80 118 2.0 3.0 0.00 0.00 0.00 44 1004.6
20260505171620 80 180 1.0 2.0 0.00 0.00 0.00 44 1004.6
20260505171118 82 176 2.0 3.0 0.00 0.00 0.00 45 1004.6
20260505170615 82 146 1.0 2.0 0.00 0.00 0.00 44 1004.9
20260505170111 82 132 2.0 3.0 0.00 0.00 0.00 42 1004.9
20260505165606 83 192 3.0 5.0 0.00 0.00 0.00 43 1004.9
20260505165102 82 135 0.0 2.0 0.00 0.00 0.00 44 1004.9
20260505164558 82 92 2.0 3.0 0.00 0.00 0.00 46 1005.6
20260505164056 82 114 2.0 3.0 0.00 0.00 0.00 45 1005.6
20260505163555 82 137 3.0 3.0 0.00 0.00 0.00 44 1005.6
20260505163051 82 91 1.0 3.0 0.00 0.00 0.00 43 1005.3
20260505162549 81 115 2.0 3.0 0.00 0.00 0.00 44 1005.6
20260505162047 81 123 2.0 3.0 0.00 0.00 0.00 43 1005.6
20260505161543 81 125 0.0 0.0 0.00 0.00 0.00 44 1005.6
20260505161041 81 116 1.0 2.0 0.00 0.00 0.00 44 1005.9
20260505160539 80 125 2.0 3.0 0.00 0.00 0.00 45 1005.6
20260505153015 79 121 0.0 2.0 0.00 0.00 0.00 45 1006.3
20260505152512 79 115 0.0 0.0 0.00 0.00 0.00 48 1006.6
20260505152008 78 196 2.0 3.0 0.00 0.00 0.00 46 1006.6
20260505151503 77 124 1.0 2.0 0.00 0.00 0.00 49 1006.6
20260505151000 76 72 1.0 2.0 0.00 0.00 0.00 51 1006.6
20260505150457 76 84 0.0 0.0 0.00 0.00 0.00 50 1006.6
20260505140427 68 89 0.0 0.0 0.00 0.00 0.00 58 1008.0
20260505124840 63 125 0.0 0.0 0.00 0.00 0.00 64 1008.0
20260505124337 62 121 1.0 2.0 0.00 0.00 0.00 64 1008.0
20260505123833 62 112 0.0 0.0 0.00 0.00 0.00 63 1008.0
20260505123330 62 106 0.0 0.0 0.00 0.00 0.00 64 1007.6
20260505122826 61 111 0.0 2.0 0.00 0.00 0.00 65 1008.0
20260505122324 61 61 0.0 0.0 0.00 0.00 0.00 65 1008.0
20260505121820 61 141 2.0 3.0 0.00 0.00 0.00 65 1008.0
20260505121317 60 99 0.0 2.0 0.00 0.00 0.00 65 1008.0
20260505120813 60 116 0.0 0.0 0.00 0.00 0.00 67 1008.0
20260505120309 60 169 3.0 3.0 0.00 0.00 0.00 66 1008.0
20260505115808 59 163 3.0 3.0 0.00 0.00 0.00 66 1008.0
20260505115306 59 114 2.0 3.0 0.00 0.00 0.00 68 1008.0
20260505114803 59 121 0.0 2.0 0.00 0.00 0.00 69 1008.0
20260505114300 58 124 0.0 0.0 0.00 0.00 0.00 68 1008.0
20260505113756 58 124 0.0 2.0 0.00 0.00 0.00 69 1008.0
20260505113252 58 83 0.0 0.0 0.00 0.00 0.00 70 1008.0
20260505112748 58 108 0.0 0.0 0.00 0.00 0.00 71 1008.0
20260505112246 58 120 0.0 0.0 0.00 0.00 0.00 71 1008.0
20260505111741 58 108 0.0 0.0 0.00 0.00 0.00 70 1007.6
20260505111237 57 111 0.0 0.0 0.00 0.00 0.00 72 1008.0
20260505110733 57 110 0.0 0.0 0.00 0.00 0.00 73 1008.0
20260505110231 56 101 0.0 0.0 0.00 0.00 0.00 73 1008.0
20260505102206 56 106 0.0 0.0 0.00 0.00 0.00 75 1007.6
20260505101705 56 112 0.0 2.0 0.00 0.00 0.00 75 1007.6
20260505101201 56 110 0.0 2.0 0.00 0.00 0.00 75 1007.6
20260505100657 57 106 0.0 2.0 0.00 0.00 0.00 74 1007.6
20260505100154 58 110 0.0 0.0 0.00 0.00 0.00 72 1007.6
20260505095649 58 105 0.0 0.0 0.00 0.00 0.00 66 1008.3
20260505095147 58 359 2.0 3.0 0.00 0.00 0.00 64 1008.3
20260505094643 57 30 0.0 0.0 0.00 0.00 0.00 64 1008.0
20260505094139 57 102 0.0 0.0 0.00 0.00 0.00 65 1007.6
20260505093636 58 101 0.0 0.0 0.00 0.00 0.00 64 1007.6
20260505093133 57 101 0.0 0.0 0.00 0.00 0.00 63 1007.3
20260505092630 57 100 0.0 0.0 0.00 0.00 0.00 64 1007.3
20260505092129 58 110 0.0 0.0 0.00 0.00 0.00 64 1007.3
20260505091625 58 108 0.0 0.0 0.00 0.00 0.00 64 1007.3
20260505091124 58 102 0.0 0.0 0.00 0.00 0.00 64 1007.3
20260505090621 58 96 0.0 0.0 0.00 0.00 0.00 63 1007.3
20260505090119 58 113 0.0 0.0 0.00 0.00 0.00 63 1007.3
20260505085616 58 97 0.0 0.0 0.00 0.00 0.00 63 1006.9
20260505085114 58 75 0.0 0.0 0.00 0.00 0.00 63 1007.3
20260505084612 58 104 0.0 0.0 0.00 0.00 0.00 63 1006.9
20260505084110 58 108 0.0 0.0 0.00 0.00 0.00 62 1006.9
20260505083607 59 101 0.0 0.0 0.00 0.00 0.00 62 1007.3
20260505083103 59 96 0.0 0.0 0.00 0.00 0.00 62 1007.3
20260505082559 59 119 0.0 0.0 0.00 0.00 0.00 62 1007.3
20260505082057 59 104 0.0 0.0 0.00 0.00 0.00 61 1007.3
20260505081553 59 110 0.0 0.0 0.00 0.00 0.00 61 1007.3
20260505081050 59 108 0.0 0.0 0.00 0.00 0.00 62 1007.3
20260505080546 59 66 1.0 2.0 0.00 0.00 0.00 61 1007.3
20260505080043 59 96 0.0 0.0 0.00 0.00 0.00 61 1007.3
20260505075539 59 110 1.0 2.0 0.00 0.00 0.00 61 1007.3
20260505075036 58 93 0.0 0.0 0.00 0.00 0.00 62 1007.3
20260505074533 59 100 0.0 0.0 0.00 0.00 0.00 61 1007.3
20260505074030 59 77 1.0 3.0 0.00 0.00 0.00 62 1007.3
20260505073527 59 48 0.0 2.0 0.00 0.00 0.00 61 1007.3
20260505073026 58 50 0.0 0.0 0.00 0.00 0.00 61 1007.3
20260505072521 58 95 0.0 0.0 0.00 0.00 0.00 61 1006.9
20260505072017 58 92 0.0 0.0 0.00 0.00 0.00 61 1007.3
20260505071513 58 116 0.0 0.0 0.00 0.00 0.00 61 1007.3
20260505071012 59 104 0.0 0.0 0.00 0.00 0.00 61 1006.9
20260505070509 59 187 3.0 3.0 0.00 0.00 0.00 60 1007.3
20260505070004 59 111 0.0 0.0 0.00 0.00 0.00 61 1007.6
20260505065500 59 124 0.0 0.0 0.00 0.00 0.00 60 1007.3
20260505064957 59 103 0.0 0.0 0.00 0.00 0.00 61 1006.9
20260505064454 59 67 1.0 3.0 0.00 0.00 0.00 60 1006.9
20260505063952 59 96 0.0 0.0 0.00 0.00 0.00 61 1007.3
20260505063449 59 90 0.0 0.0 0.00 0.00 0.00 60 1007.3
20260505062945 59 128 0.0 0.0 0.00 0.00 0.00 60 1007.3
20260505062442 59 104 0.0 0.0 0.00 0.00 0.00 61 1007.3
20260505061939 59 111 0.0 0.0 0.00 0.00 0.00 61 1007.3
20260505061437 59 100 0.0 0.0 0.00 0.00 0.00 60 1007.3
20260505060934 59 95 0.0 0.0 0.00 0.00 0.00 61 1007.3
20260505060431 59 89 0.0 0.0 0.00 0.00 0.00 60 1007.3
20260505055927 59 103 0.0 0.0 0.00 0.00 0.00 60 1007.6
20260505055424 59 102 0.0 0.0 0.00 0.00 0.00 60 1007.3
20260505054921 59 86 0.0 0.0 0.00 0.00 0.00 60 1007.6
20260505054418 59 76 0.0 0.0 0.00 0.00 0.00 59 1007.6
20260505053916 59 18 0.0 2.0 0.00 0.00 0.00 59 1007.6
20260505053413 59 124 0.0 2.0 0.00 0.00 0.00 59 1007.6
20260505052909 59 89 0.0 0.0 0.00 0.00 0.00 59 1007.6
20260505052406 60 84 0.0 0.0 0.00 0.00 0.00 59 1007.6
20260505051903 60 105 0.0 0.0 0.00 0.00 0.00 59 1007.3
20260505051401 60 114 0.0 0.0 0.00 0.00 0.00 58 1007.6
20260505050859 60 122 0.0 0.0 0.00 0.00 0.00 58 1007.6
20260505050357 60 111 0.0 0.0 0.00 0.00 0.00 58 1007.6
20260505041324 61 85 0.0 2.0 0.00 0.00 0.00 54 1007.3
20260505040821 61 117 0.0 0.0 0.00 0.00 0.00 55 1007.3
20260505040319 61 118 1.0 3.0 0.00 0.00 0.00 55 1007.3
20260505035815 61 109 0.0 0.0 0.00 0.00 0.00 55 1007.3
20260505035311 61 171 1.0 3.0 0.00 0.00 0.00 55 1007.3
20260505034809 61 108 0.0 0.0 0.00 0.00 0.00 54 1007.3
20260505034305 61 144 1.0 3.0 0.00 0.00 0.00 53 1007.6
20260505033802 61 87 1.0 2.0 0.00 0.00 0.00 54 1007.3
20260505033259 61 115 0.0 0.0 0.00 0.00 0.00 53 1007.3
20260505032758 61 96 0.0 2.0 0.00 0.00 0.00 54 1007.6
20260505032253 62 142 0.0 2.0 0.00 0.00 0.00 54 1007.3
20260505031750 61 22 1.0 2.0 0.00 0.00 0.00 54 1007.3
20260505031246 61 111 1.0 3.0 0.00 0.00 0.00 55 1007.3
20260505030744 61 174 0.0 0.0 0.00 0.00 0.00 55 1007.3
20260505030240 61 120 0.0 0.0 0.00 0.00 0.00 55 1007.3
20260505025736 61 123 0.0 0.0 0.00 0.00 0.00 55 1007.3
20260505025234 61 140 0.0 2.0 0.00 0.00 0.00 54 1007.3
20260505024732 61 124 0.0 0.0 0.00 0.00 0.00 55 1007.3
20260505024229 61 127 0.0 0.0 0.00 0.00 0.00 55 1007.3
20260505023726 61 136 0.0 0.0 0.00 0.00 0.00 54 1007.3
20260505023223 61 125 0.0 0.0 0.00 0.00 0.00 55 1007.3
20260505022721 61 119 0.0 0.0 0.00 0.00 0.00 54 1007.3
20260505022218 61 96 0.0 0.0 0.00 0.00 0.00 54 1007.3
20260505021714 61 86 0.0 2.0 0.00 0.00 0.00 53 1007.3
20260505021212 61 113 0.0 0.0 0.00 0.00 0.00 54 1007.6
20260505020707 61 136 0.0 0.0 0.00 0.00 0.00 54 1007.6
20260505020203 61 138 0.0 0.0 0.00 0.00 0.00 53 1007.3
20260505015700 62 140 0.0 0.0 0.00 0.00 0.00 53 1007.6
20260505015157 62 143 0.0 0.0 0.00 0.00 0.00 52 1007.3
20260505014654 62 147 0.0 0.0 0.00 0.00 0.00 51 1007.6
20260505014151 62 104 0.0 0.0 0.00 0.00 0.00 51 1007.3
20260505013648 63 145 0.0 0.0 0.00 0.00 0.00 51 1007.3
20260505013145 63 147 0.0 2.0 0.00 0.00 0.00 51 1007.6
20260505012643 63 104 0.0 0.0 0.00 0.00 0.00 51 1007.3
20260505012140 63 122 0.0 0.0 0.00 0.00 0.00 50 1006.9
20260505011636 63 126 1.0 2.0 0.00 0.00 0.00 50 1006.9
20260505011134 63 118 0.0 0.0 0.00 0.00 0.00 51 1006.9
20260505010633 63 111 0.0 0.0 0.00 0.00 0.00 50 1006.9
20260505010131 63 118 0.0 0.0 0.00 0.00 0.00 50 1006.9
20260505005627 63 105 0.0 0.0 0.00 0.00 0.00 48 1006.9
20260505005124 63 125 0.0 0.0 0.00 0.00 0.00 49 1006.9
20260505004621 64 109 0.0 0.0 0.00 0.00 0.00 49 1006.9
20260505004118 64 107 0.0 0.0 0.00 0.00 0.00 48 1006.6
20260505003615 65 107 0.0 0.0 0.00 0.00 0.00 47 1006.9
20260505003112 65 106 0.0 0.0 0.00 0.00 0.00 46 1006.6
20260505002608 65 102 0.0 0.0 0.00 0.00 0.00 46 1006.6
20260505002107 65 105 0.0 0.0 0.00 0.00 0.00 45 1006.6
20260505001603 65 104 0.0 0.0 0.00 0.00 0.00 45 1006.6
20260505001101 65 114 0.0 0.0 0.00 0.00 0.00 46 1006.6
20260505000558 65 109 0.0 0.0 0.00 0.00 0.00 45 1006.6
20260505000055 66 112 0.0 0.0 0.00 0.00 0.00 45 1006.3
20260504235552 66 104 0.0 0.0 0.00 0.00 0.00 45 1006.3
20260504235049 67 104 0.0 0.0 0.00 0.00 0.00 42 1006.3
20260504234546 67 109 0.0 0.0 0.00 0.00 0.00 43 1006.3
20260504234043 68 107 0.0 0.0 0.00 0.00 0.00 43 1006.3
20260504233538 68 114 0.0 0.0 0.00 0.00 0.00 43 1005.9
20260504233035 68 120 0.0 0.0 0.00 0.00 0.00 42 1005.9
20260504232532 68 108 0.0 0.0 0.00 0.00 0.00 42 1005.9
20260504232030 69 114 0.0 0.0 0.00 0.00 0.00 41 1006.3
20260504231526 69 100 0.0 0.0 0.00 0.00 0.00 41 1005.9
20260504231022 69 119 0.0 0.0 0.00 0.00 0.00 40 1005.9